Phoenix Deer Valley, AZ

8:59 PM MST on July 27, 2017 (GMT -0700)
Phoenix-Deer Valley Municipal

Weather History for KDVT - October, 2013

Change the Weather History Date:

Wednesday, October 23, 2013

  Actual Average Record
Temperature  
Mean Temperature 77 °F -  
Max Temperature 90 °F 78 °F 95 °F (2003)
Min Temperature 64 °F 58 °F 46 °F (1996)
Cooling Degree Days 12    
Growing Degree Days 27 (Base 50)    
Moisture  
Dew Point 25 °F    
Average Humidity 15    
Maximum Humidity 20    
Minimum Humidity 10    
Precipitation  
Precipitation 0.00 in - - ()
Sea Level Pressure  
Sea Level Pressure 29.81 in    
Wind  
Wind Speed 5 mph (NE)    
Max Wind Speed 8 mph    
Max Gust Speed -    
Visibility 10 miles    
Events      
Averages and records for this station are not official NWS values.
T = Trace of Precipitation, MM = Missing Value Source: NWS Daily Summary

Daily Weather History Graph

Daily Weather History Graph

Search for Another Location

Airport or City:

Trip Planner

Search our weather history database for the weather conditions in past years. The results will help you decide how hot, cold, wet, or windy it might be!

Date:

Astronomy

Oct. 23, 2013 Rise Set
Actual Time 6:39 AM MST 5:44 PM MST
Civil Twilight 6:14 AM MST 6:10 PM MST
Nautical Twilight 5:45 AM MST 6:39 PM MST
Astronomical Twilight 5:16 AM MST 7:08 PM MST
Moon 9:26 PM MST (10/23) 10:52 AM MST (10/23)
Length of Visible Light 11h 55m
Length of Day
11h 04m
Waning Gibbous, 78% of the Moon is Illuminated
Oct 23
Waning Gibbous
Oct 26
Last Quarter
Nov 3
New
Nov 9
First Quarter
Nov 17
Full

Hourly Weather History & Observations

Time (MST) Temp. Dew Point Humidity Pressure Visibility Wind Dir Wind Speed Gust Speed Precip Events Conditions
12:53 AM 66.9 °F 19.9 °F 17% 29.84 in 10.0 mi West 3.5 mph - N/A   Clear
1:53 AM 70.0 °F 19.9 °F 15% 29.84 in 10.0 mi ENE 3.5 mph - N/A   Clear
2:53 AM 64.0 °F 21.0 °F 19% 29.83 in 10.0 mi NNE 4.6 mph - N/A   Clear
3:53 AM 71.1 °F 21.9 °F 16% 29.83 in 10.0 mi ENE 3.5 mph - N/A   Clear
4:53 AM 71.1 °F 23.0 °F 16% 29.83 in 10.0 mi NE 4.6 mph - N/A   Clear
5:53 AM 70.0 °F 23.0 °F 17% 29.84 in 10.0 mi NNE 3.5 mph - N/A   Clear
6:53 AM 71.1 °F 23.0 °F 16% 29.86 in 10.0 mi NE 5.8 mph - N/A   Clear
7:53 AM 73.9 °F 25.0 °F 16% 29.87 in 10.0 mi NE 5.8 mph - N/A   Clear
8:53 AM 77.0 °F 27.0 °F 16% 29.88 in 10.0 mi Variable 3.5 mph - N/A   Clear
9:53 AM 82.0 °F 26.1 °F 13% 29.87 in 10.0 mi ESE 6.9 mph - N/A   Clear
10:53 AM 84.9 °F 26.1 °F 12% 29.85 in 10.0 mi East 8.1 mph - N/A   Clear
11:53 AM 87.1 °F 26.1 °F 11% 29.83 in 10.0 mi East 8.1 mph - N/A   Clear
12:53 PM 88.0 °F 26.1 °F 11% 29.81 in 10.0 mi South 8.1 mph - N/A   Clear
1:53 PM 89.1 °F 26.1 °F 10% 29.78 in 10.0 mi SE 8.1 mph - N/A   Clear
2:53 PM 90.0 °F 28.0 °F 11% 29.77 in 10.0 mi ESE 4.6 mph - N/A   Clear
3:53 PM 90.0 °F 28.0 °F 11% 29.76 in 10.0 mi SE 4.6 mph - N/A   Clear
4:53 PM 88.0 °F 27.0 °F 11% 29.76 in 10.0 mi Calm Calm - N/A   Clear
5:53 PM 82.9 °F 26.1 °F 13% 29.77 in 10.0 mi WNW 4.6 mph - N/A   Clear
6:53 PM 80.1 °F 28.9 °F 15% 29.78 in 10.0 mi North 4.6 mph - N/A   Clear
7:53 PM 78.1 °F 27.0 °F 15% 29.78 in 10.0 mi NNE 5.8 mph - N/A   Clear
8:53 PM 75.9 °F 27.0 °F 16% 29.78 in 10.0 mi NE 4.6 mph - N/A   Clear
9:53 PM 75.9 °F 27.0 °F 16% 29.78 in 10.0 mi ENE 4.6 mph - N/A   Clear
10:53 PM 72.0 °F 28.0 °F 20% 29.78 in 10.0 mi North 6.9 mph - N/A   Clear
11:53 PM 70.0 °F 27.0 °F 20% 29.78 in 10.0 mi North 3.5 mph - N/A   Clear